2023/08/23 00:00:00, 0.2,24.0
2023/08/23 00:10:00, 0.2,24.3
2023/08/23 00:20:00, 0.2,24.0
2023/08/23 00:30:00, 0.2,24.2
2023/08/23 00:40:00,10.0,24.1
2023/08/23 00:50:00, 9.6,24.1
2023/08/23 01:00:00, 8.1,24.3
2023/08/23 01:10:00, 5.8,24.2
2023/08/23 01:20:00, 1.1,24.0
2023/08/23 01:30:00, 4.8,23.7
2023/08/23 01:40:00, 5.8,23.4
2023/08/23 01:50:00, 6.1,24.0
2023/08/23 02:00:00, 7.5,23.7
2023/08/23 02:10:00, 8.7,23.3
2023/08/23 02:20:00, 8.3,23.7
2023/08/23 02:30:00, 8.2,24.0
2023/08/23 02:40:00, 7.3,23.8
2023/08/23 02:50:00, 6.4,23.7
2023/08/23 03:00:00, 1.0,23.8
2023/08/23 03:10:00, 0.2,23.8
2023/08/23 03:20:00, 0.2,23.7
2023/08/23 03:30:00, 0.2,24.0
2023/08/23 03:40:00, 0.2,24.0
2023/08/23 03:50:00, 0.2,24.3
2023/08/23 04:00:00, 0.2,24.3
2023/08/23 04:10:00, 0.2,24.3
2023/08/23 04:20:00, 0.2,24.3
2023/08/23 04:30:00, 4.3,24.1
2023/08/23 04:40:00,10.1,24.3
2023/08/23 04:50:00, 0.3,24.3
2023/08/23 05:00:00, 4.3,24.3
2023/08/23 05:10:00, 2.6,24.4
2023/08/23 05:20:00, 3.1,24.0
2023/08/23 05:30:00, 3.4,24.1
2023/08/23 05:40:00, 5.3,24.5
2023/08/23 05:50:00, 6.6,24.5
2023/08/23 06:00:00, 7.1,24.5
2023/08/23 06:10:00, 2.6,24.0
2023/08/23 06:20:00, 0.2,24.0
2023/08/23 06:30:00, 0.2,23.9
2023/08/23 06:40:00, 0.2,24.0
2023/08/23 06:50:00, 0.3,24.1
2023/08/23 07:00:00, 0.3,24.2
2023/08/23 07:10:00, 0.3,24.2
2023/08/23 07:20:00, 0.2,24.2
2023/08/23 07:30:00, 0.3,24.7
2023/08/23 07:40:00, 0.3,25.4
2023/08/23 07:50:00, 0.3,25.7
2023/08/23 08:00:00, 0.3,25.9
2023/08/23 08:10:00, 0.3,26.1
2023/08/23 08:20:00, 0.2,26.1
2023/08/23 08:30:00, 0.3,26.3
2023/08/23 08:40:00, 0.2,26.6
2023/08/23 08:50:00, 0.3,27.7
2023/08/23 09:00:00, 0.3,29.3
2023/08/23 09:10:00, 3.3,31.9
2023/08/23 09:20:00, 1.8,32.8
2023/08/23 09:30:00, 0.5,32.9
2023/08/23 09:40:00, 0.5,32.6
2023/08/23 09:50:00, 0.5,31.8
2023/08/23 10:00:00, 0.5,33.1
2023/08/23 10:10:00, 0.5,33.1
2023/08/23 10:20:00, 0.5,33.3
2023/08/23 10:30:00, 1.8,31.6
2023/08/23 10:40:00, 7.2,32.1
2023/08/23 10:50:00,10.2,31.1
2023/08/23 11:00:00, 6.2,32.4
2023/08/23 11:10:00, 6.3,32.1
2023/08/23 11:20:00, 6.5,32.0
2023/08/23 11:30:00, 6.7,32.8
2023/08/23 11:40:00, 6.5,32.3
2023/08/23 11:50:00, 6.0,32.1
2023/08/23 12:00:00, 5.7,33.8
2023/08/23 12:10:00, 6.2,33.5
2023/08/23 12:20:00, 6.1,33.4
2023/08/23 12:30:00, 5.5,33.9
2023/08/23 12:40:00, 5.2,33.1
2023/08/23 12:50:00, 5.7,34.9
2023/08/23 13:00:00, 5.9,34.9
2023/08/23 13:10:00, 5.3,34.5
2023/08/23 13:20:00, 4.9,32.5
2023/08/23 13:30:00, 5.1,33.7
2023/08/23 13:40:00, 4.5,31.9
2023/08/23 13:50:00, 5.1,32.6
2023/08/23 14:00:00, 4.9,31.7
2023/08/23 14:10:00, 4.9,32.8
2023/08/23 14:20:00, 5.4,33.1
2023/08/23 14:30:00, 5.7,33.6
2023/08/23 14:40:00, 5.7,34.8
2023/08/23 14:50:00, 6.0,34.7
2023/08/23 15:00:00, 5.8,34.2
2023/08/23 15:10:00, 5.5,35.1
2023/08/23 15:20:00, 5.3,35.4
2023/08/23 15:30:00, 5.3,34.2
2023/08/23 15:40:00, 4.9,35.3
2023/08/23 15:50:00, 4.7,35.1
2023/08/23 16:00:00, 4.6,32.9
2023/08/23 16:10:00, 4.6,32.5
2023/08/23 16:20:00, 5.3,33.7
2023/08/23 16:30:00, 5.7,36.0
2023/08/23 16:40:00, 5.2,35.3
2023/08/23 16:50:00, 5.4,33.3
2023/08/23 17:00:00, 5.5,31.0
2023/08/23 17:10:00, 5.7,29.1
2023/08/23 17:20:00, 6.3,30.5
2023/08/23 17:30:00, 6.6,29.8
2023/08/23 17:40:00, 6.5,29.6
2023/08/23 17:50:00, 6.3,29.1
2023/08/23 18:00:00, 3.1,28.3
2023/08/23 18:10:00, 1.0,28.2
2023/08/23 18:20:00, 3.7,27.6
2023/08/23 18:30:00, 2.9,27.3
2023/08/23 18:40:00, 2.4,26.4
2023/08/23 18:50:00, 2.4,25.9
2023/08/23 19:00:00, 2.3,25.9
2023/08/23 19:10:00, 2.0,25.9
2023/08/23 19:20:00, 1.5,25.8
2023/08/23 19:30:00, 0.8,25.8
2023/08/23 19:40:00, 0.5,25.9
2023/08/23 19:50:00, 0.3,25.6
2023/08/23 20:00:00, 0.3,25.5
2023/08/23 20:10:00, 0.2,25.9
2023/08/23 20:20:00, 0.3,25.8
2023/08/23 20:30:00, 0.2,25.6
2023/08/23 20:40:00, 0.2,25.3
2023/08/23 20:50:00, 0.3,25.2
2023/08/23 21:00:00, 0.3,25.4
2023/08/23 21:10:00, 0.2,25.2
2023/08/23 21:20:00, 0.2,24.9
2023/08/23 21:30:00, 0.2,24.8
2023/08/23 21:40:00, 0.2,25.0
2023/08/23 21:50:00, 0.2,24.8
2023/08/23 22:00:00, 0.2,25.0
2023/08/23 22:10:00, 0.2,25.4
2023/08/23 22:20:00, 0.3,25.0
2023/08/23 22:30:00, 0.3,25.1
2023/08/23 22:40:00, 0.3,24.8
2023/08/23 22:50:00, 0.3,24.7
2023/08/23 23:00:00, 0.2,24.5
2023/08/23 23:10:00, 0.3,24.5
2023/08/23 23:20:00, 0.3,25.0
2023/08/23 23:30:00, 0.2,24.8
2023/08/23 23:40:00, 0.3,24.3
2023/08/23 23:50:00, 0.3,24.6
